﻿Дата;Google;AdRiver;ReadMe.ru;C8 Network
2019-06-05;1;0;0;0
2019-01-08;1;0;0;0
2018-12-20;1;0;0;0
2017-11-04;1;0;0;0
2017-11-03;1;0;0;0
2017-10-30;1;0;0;0
2017-10-23;2;0;0;0
2017-10-10;1;0;0;0
2017-06-20;1;0;0;0
2017-04-11;1;0;0;0
2017-03-08;1;0;0;0
2017-03-03;1;0;0;0
2017-02-23;1;0;0;0
2017-02-18;1;0;0;0
2017-02-13;1;0;0;0
2017-02-03;1;0;0;0
2017-01-19;1;0;0;0
2017-01-16;1;0;0;0
2017-01-12;1;0;0;0
2017-01-04;1;0;0;0
2016-12-15;1;0;0;0
2016-12-14;2;0;0;0
2016-12-13;1;0;0;0
2016-12-11;1;0;0;0
2016-12-10;1;0;0;0
2016-12-09;1;0;0;0
2016-12-08;1;0;0;0
2016-12-03;1;0;0;0
2016-11-22;1;0;0;0
2016-11-21;1;0;0;0
2016-11-12;1;0;0;0
2016-10-18;1;0;0;0
2016-10-10;1;0;0;0
2016-09-29;2;0;0;0
2016-09-26;1;0;0;0
2016-09-14;1;0;0;0
2016-09-10;1;0;0;0
2016-09-02;1;0;0;0
2016-08-30;1;0;0;0
2016-06-08;1;0;0;0
2016-06-07;1;0;0;0
2016-06-04;1;0;0;0
2016-06-03;1;0;0;0
2016-06-02;1;0;0;0
2016-06-01;1;0;0;0
2016-05-29;1;0;0;0
2016-05-26;1;0;0;0
2016-05-25;1;0;0;0
2016-05-20;2;0;0;0
2016-05-19;2;0;0;0
2016-05-18;2;0;0;0
2016-05-17;3;0;0;0
2016-05-16;2;0;0;0
2016-05-14;1;0;0;0
2016-05-12;2;0;0;0
2016-05-11;3;0;0;0
2016-05-08;3;0;0;0
2016-05-07;1;0;0;0
2016-05-06;2;0;0;0
2016-05-05;2;0;0;0
2016-05-04;2;0;0;0
2016-05-03;3;0;0;0
2016-05-02;2;0;0;0
2016-05-01;1;0;0;0
2016-04-30;1;0;0;0
2016-04-29;1;0;0;0
2016-04-28;2;0;0;0
2016-04-27;1;0;0;0
2016-04-26;2;0;0;0
2016-04-25;1;0;0;0
2016-04-24;2;0;0;0
2016-04-23;2;0;0;0
2016-04-22;3;0;0;0
2016-04-21;1;0;0;0
2016-04-20;2;0;0;0
2016-04-19;1;0;0;0
2016-04-18;3;0;0;0
2016-04-16;3;0;0;0
2016-04-15;5;0;0;0
2016-04-14;4;0;0;0
2016-04-12;4;0;0;0
2016-04-11;3;0;0;0
2016-04-10;4;0;0;0
2016-04-09;3;0;0;0
2016-04-08;3;0;0;0
2016-04-07;2;0;0;0
2016-04-06;1;0;0;0
2016-04-05;2;0;0;0
2016-04-04;2;0;0;0
2016-04-03;2;0;0;0
2016-04-02;4;0;0;0
2016-04-01;7;0;0;0
2016-03-31;3;0;0;0
2016-03-30;5;0;0;0
2016-03-29;1;0;0;0
2016-03-28;1;0;0;0
2016-03-27;3;0;0;0
2016-03-26;1;0;0;0
2016-03-25;1;0;0;0
2016-03-23;1;0;0;0
2016-03-22;3;0;0;0
2016-03-17;1;0;0;0
2016-03-16;1;0;0;0
2016-03-15;2;0;0;0
2016-03-14;1;0;0;0
2016-03-13;1;0;0;0
2016-03-12;5;0;0;0
2016-03-11;2;0;0;0
2016-03-10;3;0;0;0
2016-03-09;4;0;0;0
2016-03-08;3;0;0;0
2016-03-07;3;0;0;0
2016-03-05;1;0;0;0
2016-03-04;3;0;0;0
2016-03-03;3;0;0;0
2016-03-02;4;0;0;0
2016-02-23;2;0;0;0
2016-02-22;1;0;0;0
2016-02-21;4;0;0;0
2016-02-20;2;0;0;0
2016-02-19;4;0;0;0
2016-02-18;5;0;0;0
2016-02-17;3;0;0;0
2016-02-16;1;0;0;0
2016-02-15;2;0;0;0
2016-02-14;2;0;0;0
2016-02-13;1;0;0;0
2016-02-12;6;0;0;0
2016-02-11;4;0;0;0
2016-02-10;3;0;0;0
2016-02-09;2;0;0;0
2016-02-08;2;0;0;0
2016-02-07;1;0;0;0
2016-02-06;3;0;0;0
2016-02-05;4;0;0;0
2016-02-04;5;0;0;0
2016-02-03;6;0;0;0
2016-02-02;9;0;0;0
2016-02-01;4;0;0;0
2016-01-31;4;0;0;0
2016-01-30;3;0;0;0
2016-01-29;4;0;0;0
2016-01-28;2;0;0;0
2016-01-27;5;0;0;0
2016-01-26;7;0;0;0
2016-01-22;11;0;0;0
2016-01-21;13;0;0;0
2016-01-20;14;0;0;0
2016-01-19;8;0;0;0
2016-01-08;8;0;0;0
2016-01-07;11;0;0;0
2016-01-06;16;0;0;0
2016-01-05;23;0;0;0
2016-01-04;9;0;0;0
2016-01-03;6;0;0;0
2016-01-02;12;0;0;0
2016-01-01;8;0;0;0
2015-12-31;13;0;0;0
2015-12-30;18;0;0;0
2015-12-23;6;0;0;0
2015-12-22;14;0;0;0
2015-12-21;7;0;0;0
2015-12-20;10;0;0;0
2015-12-19;4;0;0;0
2015-12-18;9;0;0;0
2015-12-17;11;0;0;0
2015-12-16;13;0;0;0
2015-12-15;14;0;0;0
2015-12-13;12;0;0;0
2015-12-12;10;0;0;0
2015-12-11;12;0;0;0
2015-12-10;12;0;0;0
2015-12-09;7;0;0;0
2015-12-08;4;0;0;0
2015-12-07;16;0;0;0
2015-12-06;10;0;0;0
2015-12-05;11;0;0;0
2015-12-04;16;0;0;0
2015-12-03;17;0;0;0
2015-12-02;16;0;0;0
2015-12-01;13;0;0;0
2015-11-28;15;0;0;0
2015-11-27;14;0;0;0
2015-11-26;15;0;0;0
2015-11-25;18;0;0;0
2015-11-23;12;0;0;0
2015-11-22;11;0;0;0
2015-11-21;18;0;0;0
2015-11-20;12;0;0;0
2015-11-19;13;0;0;0
2015-11-18;15;0;0;0
2015-11-17;13;0;0;0
2015-11-16;28;0;0;0
2015-11-15;20;0;0;0
2015-11-14;9;0;0;0
2015-11-13;18;0;0;0
2015-11-12;20;0;0;0
2015-11-11;13;0;0;0
2015-11-10;10;0;0;0
2015-11-09;12;0;0;0
2015-11-08;12;0;0;0
2015-11-07;8;0;0;0
2015-11-06;15;0;0;0
2015-11-05;13;0;0;0
2015-11-04;15;0;0;0
2015-11-03;13;0;0;0
2015-11-02;1;0;0;0
2015-11-01;4;0;0;0
2015-10-31;7;0;0;0
2015-10-30;11;0;0;0
2015-10-29;9;0;0;0
2015-10-28;10;0;0;0
2015-10-27;11;0;0;0
2015-10-26;14;0;0;0
2015-10-25;11;0;0;0
2015-10-24;14;0;0;0
2015-10-23;11;0;0;0
2015-10-22;8;0;0;0
2015-10-21;20;0;0;0
2015-10-20;14;0;0;0
2015-10-18;4;0;0;0
2015-10-17;9;0;0;0
2015-10-16;5;0;0;0
2015-10-15;12;0;0;0
2015-10-14;21;0;0;0
2015-10-12;30;0;0;0
2015-10-11;30;0;0;0
2015-10-10;24;0;0;0
2015-10-04;22;0;0;0
2015-10-03;26;0;0;0
2015-10-02;21;0;0;0
2015-10-01;42;0;0;0
2015-09-30;39;0;0;0
2015-09-28;12;0;0;0
2015-09-27;25;0;0;0
2015-09-26;23;0;0;0
2015-09-25;30;0;0;0
2015-09-24;34;0;0;0
2015-09-07;47;0;0;0
2015-09-06;41;0;0;0
2015-09-05;28;0;0;0
2015-09-04;44;0;0;0
2015-09-03;41;0;0;0
2015-09-02;33;0;0;0
2015-08-30;40;0;0;0
2015-08-29;50;0;0;0
2015-08-28;41;0;0;0
2015-08-24;11;0;0;0
2015-08-23;32;0;0;0
2015-08-22;28;0;0;0
2015-08-21;29;0;0;0
2015-08-20;32;0;0;0
2015-08-19;30;0;0;0
2015-08-18;35;0;0;0
2015-08-17;40;0;0;0
2015-08-16;21;0;0;0
2015-08-15;21;0;0;0
2015-08-14;39;0;0;0
2015-08-13;34;0;0;0
2015-08-12;35;0;0;0
2015-08-11;44;0;0;0
2015-08-10;39;0;0;0
2015-08-09;27;0;0;0
2015-08-08;27;0;0;0
2015-08-07;38;0;0;0
2015-08-06;43;0;0;0
2015-08-05;40;0;0;0
2015-08-03;15;0;0;0
2015-08-02;40;0;0;0
2015-08-01;29;0;0;0
2015-07-31;34;0;0;0
2015-07-30;32;0;0;0
2015-07-29;27;0;0;0
2015-07-28;27;0;0;0
2015-07-27;28;0;0;0
2015-07-26;33;0;0;0
2015-07-25;24;0;0;0
2015-07-24;26;0;0;0
2015-07-23;33;0;0;0
2015-07-22;25;0;0;0
2015-07-21;20;0;0;0
2015-07-20;107;0;0;0
2015-07-19;101;0;0;0
2015-07-18;108;0;0;0
2015-07-17;107;0;0;0
2015-07-16;117;0;0;0
2015-07-15;104;0;0;0
2015-07-14;112;0;0;0
2015-07-13;114;0;0;0
2015-07-12;92;0;0;0
2015-07-11;96;0;0;0
2015-07-10;129;0;0;0
2015-07-09;176;0;0;0
2015-07-08;194;0;0;0
2015-07-07;192;0;0;0
2015-07-06;159;0;0;0
2015-07-03;62;0;0;0
2015-07-02;160;0;0;0
2015-07-01;170;0;0;0
2015-06-30;194;0;0;0
2015-06-29;191;0;0;0
2015-06-28;181;0;0;0
2015-06-27;140;0;0;0
2015-06-26;22;0;0;0
2015-06-25;190;0;0;0
2015-06-24;114;0;0;0
2015-06-23;175;0;0;0
2015-06-22;193;0;0;0
2015-06-21;146;0;0;0
2015-06-20;161;0;0;0
2015-06-19;194;0;0;0
2015-06-18;179;0;0;0
2015-06-17;174;0;0;0
2015-06-16;37;0;0;0
2015-06-15;178;0;0;0
2015-06-14;122;0;0;0
2015-06-13;141;0;0;0
2015-06-12;181;0;0;0
2015-06-11;168;0;0;0
2015-06-10;146;0;0;0
2015-06-09;186;0;0;0
2015-06-08;198;0;0;0
2015-06-07;146;0;0;0
2015-06-06;133;0;0;0
2015-06-05;134;0;0;0
2015-06-04;180;0;0;0
2015-06-03;283;0;0;0
2015-06-01;31;0;0;0
2015-05-31;141;0;0;0
2015-05-30;121;0;0;0
2015-05-29;251;0;0;0
2015-05-28;200;0;0;0
2015-05-27;237;0;0;0
2015-05-26;293;0;0;0
2015-05-25;261;0;0;0
2015-05-24;159;0;0;0
2015-05-23;210;0;0;0
2015-05-22;274;0;0;0
2015-05-21;705;0;0;0
2015-05-20;736;0;0;0
2015-05-19;542;0;0;0
2015-05-18;487;0;0;0
2015-05-17;334;0;0;0
2015-05-16;89;0;0;0
2015-05-15;48;0;0;0
2015-05-14;56;0;0;0
2015-05-13;50;0;0;0
2015-05-12;37;0;0;0
2015-05-07;17;0;0;0
2015-04-09;12;0;0;0
2015-04-08;12;0;0;0
2015-03-29;8;0;0;0
2015-03-28;11;0;0;0
2015-03-27;11;0;0;0
2015-03-26;7;0;0;0
2015-03-25;13;0;0;0
2015-03-24;12;0;0;0
2015-03-23;15;0;0;0
2015-03-22;11;0;0;0
2015-03-21;7;0;0;0
2015-03-20;11;0;0;0
2015-03-19;12;0;0;0
2015-03-15;14;0;0;0
2015-03-14;22;0;0;0
2015-03-13;16;0;0;0
2015-03-12;17;0;0;0
2015-03-11;12;0;0;0
2015-03-07;12;0;0;0
2015-03-06;16;0;0;0
2015-03-05;12;0;0;0
2015-03-04;10;0;0;0
2015-03-03;24;0;0;0
2015-02-14;6;0;0;0
2015-02-11;13;0;0;0
2015-02-10;23;0;0;0
2015-02-09;23;0;0;0
2015-02-08;17;0;0;0
2015-02-07;16;0;0;0
2015-02-06;17;0;0;0
2015-02-05;46;0;0;0
2015-02-04;103;0;0;0
2015-02-03;245;0;0;0
2015-02-02;131;0;0;0
2015-02-01;1;0;0;0
2015-01-29;125;0;0;0
2015-01-28;179;0;0;0
2015-01-27;119;0;0;0
2015-01-13;1;0;0;0
2015-01-12;1;0;0;0
2015-01-09;1;0;0;0
2015-01-08;1;0;0;0
2015-01-07;57;0;0;0
2015-01-06;153;0;0;0
2015-01-05;241;0;0;0
2015-01-04;183;0;0;0
2015-01-03;158;0;0;0
2015-01-02;94;0;0;0
2014-12-30;100;0;0;0
2014-12-29;138;0;0;0
2014-12-28;152;0;0;0
2014-12-27;132;0;0;0
2014-12-26;126;0;0;0
2014-12-25;154;0;0;0
2014-12-24;159;0;0;0
2014-12-23;155;0;0;0
2014-12-22;119;2;0;0
2014-12-21;147;0;0;0
2014-12-20;128;0;0;0
2014-12-19;146;0;0;0
2014-12-18;107;0;0;0
2014-12-17;143;0;0;0
2014-12-16;153;0;0;0
2014-12-15;157;0;0;0
2014-12-14;102;0;0;0
2014-12-13;95;0;0;0
2014-12-12;166;0;0;0
2014-12-11;148;0;0;0
2014-12-10;98;0;0;0
2014-12-09;144;0;0;0
2014-12-08;80;0;0;0
2014-12-07;108;0;0;0
2014-12-06;141;0;0;0
2014-12-05;151;1;0;0
2014-12-04;140;1;0;0
2014-12-03;161;0;0;0
2014-12-02;169;0;0;0
2014-12-01;122;0;0;0
2014-11-30;214;0;0;0
2014-11-29;165;0;0;0
2014-11-28;183;0;0;0
2014-11-27;171;0;0;0
2014-11-26;168;0;0;0
2014-11-25;162;0;0;0
2014-11-24;172;0;0;0
2014-11-23;176;0;0;0
2014-11-22;146;0;0;0
2014-11-21;173;0;0;0
2014-11-20;114;0;0;0
2014-11-19;122;0;0;0
2014-11-18;97;0;0;0
2014-11-17;79;0;0;0
2014-11-16;80;0;0;0
2014-11-15;97;0;0;0
2014-11-14;136;0;0;0
2014-11-13;118;0;0;0
2014-11-12;90;0;0;0
2014-11-11;88;0;0;0
2014-10-26;103;0;0;0
2014-10-25;106;0;0;0
2014-10-24;98;1;0;0
2014-10-23;94;0;0;0
2014-10-22;96;0;0;0
2014-10-21;86;0;0;0
2014-10-20;81;0;0;0
2014-10-09;75;0;0;0
2014-10-08;90;1;0;0
2014-10-07;92;0;0;0
2014-10-06;99;0;0;0
2014-10-05;74;0;0;0
2014-10-04;57;0;0;0
2014-10-03;81;0;0;0
2014-10-02;39;0;0;0
2014-10-01;88;0;0;0
2014-09-30;83;0;0;0
2014-09-29;86;0;0;0
2014-09-28;81;0;0;0
2014-09-27;73;0;0;0
2014-09-26;88;0;0;0
2014-09-25;90;0;0;0
2014-09-24;97;0;0;0
2014-09-23;96;0;0;0
2014-09-22;91;0;0;0
2014-09-21;85;0;0;0
2014-09-20;62;0;0;0
2014-09-19;79;0;0;0
2014-09-18;66;0;0;0
2014-09-17;75;0;0;0
2014-09-16;17;0;0;0
2014-09-15;96;0;0;0
2014-09-14;64;0;0;0
2014-09-13;71;0;0;0
2014-09-12;88;0;0;0
2014-09-11;90;0;0;0
2014-09-10;106;0;0;0
2014-09-09;87;0;0;0
2014-09-08;54;0;0;0
2014-09-06;26;0;0;0
2014-09-05;87;0;0;0
2014-09-04;77;0;0;0
2014-09-03;90;0;0;0
2014-09-02;97;0;0;0
2014-09-01;79;0;0;0
2014-08-31;82;0;0;0
2014-08-30;56;0;0;0
2014-08-29;87;0;0;0
2014-08-28;87;0;0;0
2014-08-27;88;0;0;0
2014-08-26;89;0;0;0
2014-08-25;78;0;0;0
2014-08-24;65;0;0;0
2014-08-23;55;0;0;0
2014-08-22;10;0;0;0
2014-08-21;68;0;0;0
2014-08-20;88;0;0;0
2014-08-19;41;0;0;0
2014-08-18;101;0;0;0
2014-08-17;69;0;0;0
2014-08-16;67;0;0;0
2014-08-15;51;0;0;0
2014-08-14;95;0;0;0
2014-08-13;82;0;0;0
2014-08-12;84;0;0;0
2014-08-11;68;0;0;0
2014-08-10;1;0;0;0
2014-08-09;53;0;0;0
2014-08-08;85;0;0;0
2014-08-07;75;0;0;0
2014-08-06;87;0;0;0
2014-08-05;94;0;0;0
2014-08-04;94;0;0;0
2014-08-03;92;0;0;0
2014-08-02;85;0;0;0
2014-08-01;88;0;0;0
2014-07-31;28;0;0;0
2014-07-30;106;0;0;0
2014-07-29;90;0;0;0
2014-07-28;80;0;0;0
2014-07-27;73;0;0;0
2014-07-26;69;0;0;0
2014-07-25;83;0;0;0
2014-07-24;78;0;0;0
2014-07-23;28;0;0;0
2014-07-21;4;0;0;0
2014-07-20;16;0;0;0
2014-07-19;26;0;0;0
2014-07-18;17;0;0;0
2014-07-17;21;0;0;0
2014-07-16;47;0;0;0
2014-07-15;72;0;0;0
2014-07-14;32;0;0;0
2014-07-13;46;0;0;0
2014-07-12;1;0;0;0
2014-07-11;11;0;0;0
2014-07-10;76;0;0;0
2014-07-09;50;0;0;0
2014-07-08;62;0;0;0
2014-07-07;90;0;0;0
2014-07-06;33;0;0;0
2014-07-05;41;0;0;0
2014-07-04;50;0;0;0
2014-07-03;57;0;0;0
2014-07-02;73;0;0;0
2014-07-01;38;1;0;0
2014-06-30;74;0;0;0
2014-06-29;79;0;0;0
2014-06-28;65;0;0;0
2014-06-27;67;0;0;0
2014-06-26;68;0;0;0
2014-06-25;52;0;0;0
2014-06-24;74;0;0;0
2014-06-23;117;0;0;0
2014-06-22;60;0;0;0
2014-06-21;55;0;0;0
2014-06-20;61;0;0;0
2014-06-19;40;0;0;0
2014-06-18;76;0;0;0
2014-06-17;30;0;0;0
2014-06-16;80;0;0;0
2014-06-15;77;0;0;0
2014-06-14;58;0;0;0
2014-06-13;88;0;0;0
2014-06-12;77;0;0;0
2014-06-11;80;0;0;0
2014-06-10;73;0;0;0
2014-06-09;14;0;0;0
2014-06-08;47;0;0;0
2014-06-07;56;0;0;0
2014-06-06;73;1;0;0
2014-06-05;81;0;0;0
2014-06-04;64;0;0;0
2014-06-03;97;0;0;0
2014-06-02;60;0;0;0
2014-06-01;85;0;0;0
2014-05-31;86;0;0;0
2014-05-30;105;0;0;0
2014-05-29;112;0;0;0
2014-05-28;98;0;0;0
2014-05-27;94;0;0;0
2014-05-26;70;0;0;0
2014-05-25;90;0;0;0
2014-05-24;75;0;0;0
2014-05-23;71;0;0;0
2014-05-22;103;0;0;0
2014-05-21;93;0;0;0
2014-05-20;95;0;0;0
2014-05-19;32;0;0;0
2014-05-18;66;0;0;0
2014-05-17;35;0;0;0
2014-05-16;79;0;0;0
2014-05-15;98;0;0;0
2014-05-14;85;0;0;0
2014-05-13;139;0;0;0
2014-05-12;99;0;0;0
2014-05-11;129;0;0;0
2014-05-10;44;0;0;0
2014-05-09;43;0;0;0
2014-05-08;121;0;0;0
2014-05-07;73;0;0;0
2014-05-06;42;0;0;0
2014-05-05;79;0;0;0
2014-05-04;35;0;0;0
2014-05-03;62;0;0;0
2014-05-02;64;0;0;0
2014-05-01;43;0;0;0
2014-04-30;101;0;0;0
2014-04-29;49;0;0;0
2014-04-28;86;0;0;0
2014-04-27;68;0;0;0
2014-04-26;58;0;0;0
2014-04-25;26;0;0;0
2014-04-24;76;0;0;0
2014-04-23;75;0;0;0
2014-04-22;117;0;0;0
2014-04-21;80;0;0;0
2014-04-20;78;0;0;0
2014-04-19;71;0;0;0
2014-04-18;45;0;0;0
2014-04-17;35;0;0;0
2014-04-16;33;0;0;0
2014-04-15;32;0;0;0
2014-04-14;48;0;0;0
2014-04-13;52;0;0;0
2014-04-12;46;0;0;0
2014-04-11;80;0;0;0
2014-04-10;64;0;0;0
2014-04-09;53;0;0;0
2014-04-08;61;0;0;0
2014-04-07;35;0;0;0
2014-04-06;22;0;0;0
2014-04-05;33;0;0;0
2014-04-04;54;0;0;0
2014-04-03;52;0;0;0
2014-04-02;49;0;0;0
2014-04-01;13;0;0;0
2014-03-31;8;0;0;0
2014-03-30;11;0;0;0
2014-03-29;7;0;0;0
2014-03-28;7;0;0;0
2014-03-27;8;0;0;0
2014-03-26;11;0;0;0
2014-03-25;10;0;0;0
2014-03-24;9;0;0;0
2014-03-23;12;0;0;0
2014-03-22;8;0;0;0
2014-03-21;8;0;0;0
2014-03-20;9;0;0;0
2014-03-19;12;0;0;0
2014-03-18;7;0;0;0
2014-03-17;8;0;0;0
2014-03-16;12;0;0;0
2014-03-15;10;0;0;0
2014-03-14;11;0;0;0
2014-03-13;11;0;0;0
2014-03-12;7;0;0;0
2014-03-11;13;0;0;0
2014-03-10;9;0;0;0
2014-03-09;13;0;0;0
2014-03-08;14;0;0;0
2014-03-07;38;0;0;0
2014-03-06;56;0;0;0
2014-03-05;55;0;0;0
2014-03-04;132;0;0;0
2014-03-03;118;0;0;0
2014-03-02;88;0;0;0
2014-03-01;95;0;0;0
2014-02-28;110;1;0;0
2014-02-27;48;0;0;0
2014-02-26;58;0;0;0
2014-02-25;100;0;0;0
2014-02-23;64;0;0;0
2014-02-22;112;1;0;0
2014-02-21;144;0;0;0
2014-02-20;134;0;0;0
2014-02-19;158;0;0;0
2014-02-18;119;0;0;0
2014-02-17;161;1;0;0
2014-02-16;126;0;0;0
2014-02-15;129;0;0;0
2014-02-14;144;0;0;0
2014-02-13;124;0;0;0
2014-02-12;180;0;0;0
2014-02-11;142;0;0;0
2014-02-10;54;0;0;0
2014-02-09;175;1;0;0
2014-02-08;154;0;0;0
2014-02-07;149;0;0;0
2014-02-06;146;0;0;0
2014-02-05;155;0;0;0
2014-02-04;152;0;0;0
2014-02-03;156;0;0;0
2014-02-02;40;0;0;0
2014-02-01;127;0;0;0
2014-01-31;136;0;0;0
2014-01-30;102;0;0;0
2014-01-29;118;0;0;0
2014-01-28;108;0;0;0
2014-01-27;60;0;0;0
2014-01-26;92;0;0;0
2014-01-25;52;0;0;0
2014-01-24;83;0;0;0
2014-01-23;75;0;0;0
2014-01-22;79;0;0;0
2014-01-21;115;0;0;0
2014-01-20;105;0;0;0
2014-01-19;29;0;0;0
2014-01-18;69;0;0;0
2014-01-17;113;0;0;0
2014-01-16;134;0;0;0
2014-01-15;138;0;0;0
2014-01-14;148;0;0;0
2014-01-13;154;0;0;0
2014-01-12;63;0;0;0
2014-01-11;140;0;0;0
2014-01-10;89;0;0;0
2014-01-09;62;0;0;0
2014-01-08;75;0;0;0
2014-01-07;43;0;0;0
2014-01-06;87;0;0;0
2014-01-05;38;0;0;0
2014-01-04;79;0;0;0
2014-01-03;46;0;0;0
2014-01-02;48;0;0;0
2014-01-01;52;0;0;0
2013-12-31;45;0;0;0
2013-12-30;55;0;0;0
2013-12-29;98;0;0;0
2013-12-28;88;0;0;0
2013-12-27;85;0;0;0
2013-12-26;101;1;0;0
2013-12-25;96;0;0;0
2013-12-24;87;0;0;0
2013-12-23;98;0;0;0
2013-12-22;104;0;0;0
2013-12-21;97;0;0;0
2013-12-20;95;0;0;0
2013-12-19;97;0;0;0
2013-12-18;89;0;0;0
2013-12-17;78;0;0;0
2013-12-16;109;0;0;0
2013-12-15;103;0;0;0
2013-12-14;121;1;0;0
2013-12-13;110;0;0;0
2013-12-12;90;0;0;0
2013-12-11;100;0;0;0
2013-12-10;96;1;0;0
2013-12-07;44;0;0;0
2013-12-06;86;0;0;0
2013-12-05;73;0;0;0
2013-12-04;25;0;0;0
2013-12-03;75;0;0;0
2013-12-02;94;0;0;0
2013-12-01;60;0;0;0
2013-11-30;61;0;0;0
2013-11-29;62;0;0;0
2013-11-28;80;0;0;0
2013-11-27;91;1;0;0
2013-11-26;86;0;0;0
2013-11-25;65;0;0;0
2013-11-24;88;0;0;0
2013-11-23;84;0;0;0
2013-11-22;93;0;0;0
2013-11-21;118;0;0;0
2013-11-20;53;0;0;0
2013-11-19;102;0;0;0
2013-11-18;76;1;0;0
2013-11-17;124;0;0;0
2013-11-16;91;0;0;0
2013-11-15;91;0;0;0
2013-11-14;108;0;0;0
2013-11-13;118;1;0;0
2013-11-12;121;0;0;0
2013-11-11;67;0;0;0
2013-11-10;97;0;0;0
2013-11-08;101;0;0;0
2013-11-07;93;0;0;0
2013-11-06;89;0;0;0
2013-11-05;104;0;0;0
2013-11-04;83;0;0;0
2013-11-03;106;0;0;0
2013-11-02;95;0;0;0
2013-11-01;87;0;0;0
2013-10-31;89;0;0;0
2013-10-30;83;0;0;0
2013-10-29;38;0;0;0
2013-10-28;114;1;0;0
2013-10-27;76;0;0;0
2013-10-26;92;0;0;0
2013-10-25;66;0;0;0
2013-10-24;96;0;0;0
2013-10-23;81;0;0;0
2013-10-22;118;0;0;0
2013-10-21;118;0;0;0
2013-10-20;116;0;0;0
2013-10-19;106;1;0;0
2013-10-18;83;0;0;0
2013-10-17;75;0;0;0
2013-10-16;78;0;0;0
2013-10-15;79;0;0;0
2013-10-14;84;0;0;0
2013-10-13;66;0;0;0
2013-10-12;69;0;0;0
2013-10-11;72;0;0;0
2013-10-10;73;0;0;0
2013-10-09;77;0;0;0
2013-10-08;84;0;0;0
2013-10-07;52;0;0;0
2013-10-06;79;0;0;0
2013-10-05;61;0;0;0
2013-10-04;73;0;0;0
2013-10-03;73;0;0;0
2013-10-02;72;0;0;0
2013-10-01;59;0;0;0
2013-09-30;102;0;0;0
2013-09-29;93;0;0;0
2013-09-28;75;0;0;0
2013-09-27;103;0;0;0
2013-09-26;90;0;0;0
2013-09-25;87;1;0;0
2013-09-24;78;0;0;0
2013-09-23;125;0;0;0
2013-09-22;95;0;0;0
2013-09-21;82;0;0;0
2013-09-20;109;0;0;0
2013-09-19;108;0;0;0
2013-09-18;119;0;0;0
2013-09-17;114;0;0;0
2013-09-16;102;0;0;0
2013-09-15;111;0;0;0
2013-09-14;102;0;0;0
2013-09-13;104;0;0;0
2013-09-12;105;0;0;0
2013-09-11;95;0;0;0
2013-09-10;108;0;0;0
2013-09-09;108;0;0;0
2013-09-08;102;0;0;0
2013-09-07;101;0;0;0
2013-09-06;116;0;0;0
2013-09-05;115;0;0;0
2013-09-04;127;0;0;0
2013-09-03;122;0;0;0
2013-09-02;138;0;0;0
2013-09-01;64;0;0;0
2013-08-31;75;0;0;0
2013-08-30;95;0;0;0
2013-08-29;104;1;0;0
2013-08-28;99;0;0;0
2013-08-27;96;0;0;0
2013-08-26;53;0;0;0
2013-08-25;95;0;0;0
2013-08-24;71;0;0;0
2013-08-23;96;0;0;0
2013-08-22;91;0;0;0
2013-08-21;91;0;0;0
2013-08-20;105;0;0;0
2013-08-19;94;0;0;0
2013-08-18;82;0;0;0
2013-08-17;76;0;0;0
2013-08-16;92;0;0;0
2013-08-15;101;0;0;0
2013-08-14;106;0;0;0
2013-08-13;106;0;0;0
2013-08-12;107;0;0;0
2013-08-11;78;0;0;0
2013-08-10;81;0;0;0
2013-08-09;90;0;0;0
2013-08-08;98;0;0;0
2013-08-07;96;0;0;0
2013-08-06;108;0;0;0
2013-08-05;107;0;0;0
2013-08-04;104;0;0;0
2013-08-03;97;0;0;0
2013-08-02;109;0;0;0
2013-08-01;113;0;0;0
2013-07-31;86;0;0;0
2013-07-30;78;0;0;0
2013-07-29;78;3;0;0
2013-07-28;86;0;0;0
2013-07-27;89;4;0;0
2013-07-26;101;7;0;0
2013-07-25;97;5;0;0
2013-07-24;86;0;0;0
2013-07-23;118;3;0;0
2013-07-22;102;5;0;0
2013-07-21;96;3;0;0
2013-07-20;81;3;0;0
2013-07-19;90;0;0;0
2013-07-18;91;2;0;0
2013-07-17;78;1;0;0
2013-07-16;92;0;0;0
2013-07-15;98;0;0;0
2013-07-14;86;0;0;0
2013-07-13;73;0;0;0
2013-07-12;82;0;0;0
2013-07-11;92;0;0;0
2013-07-10;91;0;0;0
2013-07-09;89;0;0;0
2013-07-08;97;0;0;0
2013-07-07;93;0;0;0
2013-07-06;83;0;0;0
2013-07-05;97;0;0;0
2013-07-04;101;0;0;0
2013-07-03;97;0;0;0
2013-07-02;3;0;0;0
2013-07-01;83;0;0;0
2013-06-30;82;0;0;0
2013-06-29;93;0;0;0
2013-06-28;75;0;0;0
2013-06-27;78;0;0;0
2013-06-26;84;0;0;0
2013-06-25;83;0;0;0
2013-06-24;86;0;0;0
2013-06-23;61;0;0;0
2013-06-22;66;0;0;0
2013-06-21;73;0;0;0
2013-06-20;84;0;0;0
2013-06-19;75;0;0;0
2013-06-18;104;0;0;0
2013-06-17;75;0;0;0
2013-06-16;73;0;0;0
2013-06-15;73;0;0;0
2013-06-14;71;0;0;0
2013-06-13;105;0;0;0
2013-06-12;90;0;1;0
2013-06-11;114;0;0;0
2013-06-10;83;0;0;0
2013-06-09;93;0;0;0
2013-06-08;73;0;0;0
2013-06-07;83;0;0;0
2013-06-06;100;0;0;0
2013-06-05;108;0;0;0
2013-06-04;106;0;0;0
2013-06-03;78;0;0;0
2013-06-02;112;0;0;0
2013-06-01;107;0;0;0
2013-05-31;105;0;0;0
2013-05-30;116;0;0;0
2013-05-29;102;0;0;0
2013-05-28;95;0;0;0
2013-05-27;97;0;0;0
2013-05-26;80;0;0;0
2013-05-25;65;0;0;0
2013-05-24;81;0;0;0
2013-05-23;84;0;0;0
2013-05-22;105;0;0;0
2013-05-21;87;0;0;0
2013-05-20;110;0;0;0
2013-05-19;88;0;0;0
2013-05-18;89;0;0;0
2013-05-17;87;0;0;0
2013-05-16;146;0;0;0
2013-05-15;131;0;0;0
2013-05-14;103;0;0;0
2013-05-13;145;0;0;0
2013-05-12;147;0;0;0
2013-05-11;128;0;0;0
2013-05-10;110;0;0;0
2013-05-09;103;0;0;0
2013-05-08;131;0;0;0
2013-05-07;145;0;0;0
2013-05-06;91;0;0;0
2013-05-05;118;0;0;0
2013-05-04;80;0;0;0
2013-05-03;83;0;0;0
2013-05-02;111;0;0;0
2013-05-01;112;0;0;0
2013-04-30;129;0;0;0
2013-04-29;134;0;0;0
2013-04-28;81;0;0;0
2013-04-27;131;0;0;0
2013-04-26;125;0;0;0
2013-04-25;149;0;0;0
2013-04-24;142;0;0;0
2013-04-23;148;0;0;0
2013-04-22;167;2;0;0
2013-04-21;142;0;0;0
2013-04-20;127;0;0;0
2013-04-19;113;0;0;0
2013-04-18;119;0;0;0
2013-04-17;148;0;0;0
2013-04-16;138;0;0;0
2013-04-15;170;0;0;0
2013-04-14;149;0;0;0
2013-04-13;157;0;0;0
2013-04-12;105;0;0;0
2013-04-11;136;0;0;0
2013-04-10;164;0;0;0
2013-04-09;172;0;0;0
2013-04-08;169;0;0;0
2013-04-07;187;1;0;0
2013-04-06;173;0;0;0
2013-04-05;185;0;0;0
2013-04-04;199;0;0;0
2013-04-03;180;0;0;0
2013-04-02;197;0;0;0
2013-04-01;150;0;0;0
2013-03-31;188;0;0;0
2013-03-30;201;0;0;0
2013-03-29;219;0;0;0
2013-03-28;125;0;0;0
2013-03-27;212;1;0;0
2013-03-26;193;0;0;0
2013-03-25;200;0;0;0
2013-03-24;209;0;0;0
2013-03-23;203;0;0;0
2013-03-22;206;0;0;0
2013-03-21;183;0;0;0
2013-03-20;226;0;0;0
2013-03-19;252;0;0;0
2013-03-18;300;1;0;0
2013-03-17;245;0;0;0
2013-03-16;245;0;0;0
2013-03-15;227;0;0;0
2013-03-14;230;0;0;0
2013-03-13;230;0;0;0
2013-03-12;220;0;0;0
2013-03-11;176;0;0;0
2013-03-10;182;0;0;0
2013-03-09;102;0;0;0
2013-03-08;69;0;0;0
2013-03-07;147;0;0;0
2013-03-06;191;0;0;0
2013-03-05;206;0;0;0
2013-03-04;235;0;0;0
2013-03-03;201;0;0;0
2013-03-02;188;0;0;0
2013-03-01;180;0;0;0
2013-02-28;185;0;0;0
2013-02-27;182;0;0;0
2013-02-26;213;0;0;0
2013-02-25;199;0;0;0
2013-02-24;230;0;0;0
2013-02-23;211;0;0;0
2013-02-22;222;0;0;0
2013-02-21;202;0;0;0
2013-02-20;171;0;0;0
2013-02-19;201;0;0;0
2013-02-18;243;0;0;0
2013-02-17;223;0;0;0
2013-02-16;215;0;0;0
2013-02-15;221;0;0;0
2013-02-14;222;0;0;0
2013-02-13;249;0;0;0
2013-02-12;230;0;0;0
2013-02-11;135;0;0;0
2013-02-10;222;0;0;0
2013-02-09;182;0;0;0
2013-02-08;151;0;0;0
2013-02-07;157;0;0;0
2013-02-06;173;0;0;0
2013-02-05;101;0;0;0
2013-02-04;191;0;0;0
2013-02-03;231;1;0;0
2013-02-02;199;0;0;0
2013-02-01;251;0;0;0
2013-01-31;284;0;0;0
2013-01-30;275;0;0;0
2013-01-29;197;0;0;0
2013-01-28;284;0;0;0
2013-01-27;302;0;0;0
2013-01-26;279;0;0;0
2013-01-25;219;0;0;0
2013-01-24;266;0;0;0
2013-01-23;255;0;0;0
2013-01-22;249;1;0;0
2013-01-21;266;0;0;0
2013-01-20;255;0;0;0
2013-01-19;236;0;0;0
2013-01-18;254;0;0;0
2013-01-17;243;0;0;0
2013-01-16;272;0;0;0
2013-01-15;258;0;0;0
2013-01-14;154;0;0;0
2013-01-13;272;1;0;0
2013-01-12;269;0;0;0
2013-01-11;212;0;0;0
2013-01-10;243;0;0;0
2013-01-09;223;0;0;0
2013-01-08;191;0;0;0
2013-01-07;217;0;0;0
2013-01-06;194;0;0;0
2013-01-05;191;0;0;0
2013-01-04;187;0;0;0
2013-01-03;133;0;0;0
2013-01-02;136;0;0;0
2013-01-01;130;0;0;0
2012-12-31;126;0;0;0
2012-12-30;91;0;0;0
2012-12-29;163;0;0;0
2012-12-28;167;0;0;0
2012-12-27;169;0;0;0
2012-12-26;164;0;0;0
2012-12-24;198;0;0;0
2012-12-23;139;0;0;0
2012-12-22;83;0;0;0
2012-12-21;169;0;0;0
2012-12-20;166;0;0;0
2012-12-19;186;0;0;0
2012-12-18;200;0;0;0
2012-12-17;205;0;0;0
2012-12-16;184;0;0;0
2012-12-15;169;0;0;0
2012-12-14;180;0;0;0
2012-12-13;221;1;0;0
2012-12-12;213;0;0;0
2012-12-11;209;1;0;0
2012-12-10;233;0;0;0
2012-12-09;202;0;0;0
2012-12-08;201;0;0;0
2012-12-07;177;0;0;0
2012-12-06;158;0;0;0
2012-12-05;220;0;0;0
2012-12-04;200;0;0;0
2012-12-03;243;0;0;0
2012-12-02;212;0;0;0
2012-12-01;206;0;0;0
2012-11-30;188;1;0;0
2012-11-29;221;0;0;0
2012-11-28;180;0;0;0
2012-11-27;167;1;0;0
2012-11-26;195;1;0;0
2012-11-25;173;1;0;0
2012-11-24;149;0;0;0
2012-11-23;153;0;0;0
2012-11-22;147;0;0;0
2012-11-21;175;0;0;0
2012-11-20;168;0;0;0
2012-11-19;169;0;0;0
2012-11-18;173;0;0;0
2012-11-17;155;0;0;0
2012-11-16;132;0;0;0
2012-11-15;157;0;0;0
2012-11-14;151;0;0;0
2012-11-13;164;0;0;0
2012-11-12;198;0;0;0
2012-11-11;170;0;0;0
2012-11-10;163;0;0;0
2012-11-09;155;0;0;0
2012-11-08;193;0;0;0
2012-11-07;193;0;0;0
2012-11-06;132;0;0;0
2012-11-05;138;0;0;0
2012-11-04;120;0;0;0
2012-11-03;128;0;0;0
2012-11-02;130;0;0;0
2012-11-01;132;0;0;0
2012-10-31;125;1;0;0
2012-10-30;139;0;0;0
2012-10-29;139;0;0;0
2012-10-28;123;0;0;0
2012-10-27;103;0;0;0
2012-10-26;99;0;0;0
2012-10-25;110;0;0;0
2012-10-24;135;0;0;0
2012-10-23;116;0;0;0
2012-10-22;116;0;0;0
2012-10-21;111;0;0;0
2012-10-20;94;0;0;0
2012-10-19;91;0;0;0
2012-10-18;110;0;0;0
2012-10-17;112;1;0;0
2012-10-16;98;0;0;0
2012-10-15;141;0;0;0
2012-10-14;122;0;0;0
2012-10-13;99;0;0;0
2012-10-12;91;0;0;0
2012-10-11;114;0;0;0
2012-10-10;112;0;0;0
2012-10-09;132;0;0;0
2012-10-08;111;0;0;0
2012-10-07;123;1;0;0
2012-10-06;95;0;0;0
2012-10-05;102;0;0;0
2012-10-04;100;1;0;0
2012-10-03;92;0;0;0
2012-10-02;116;0;0;0